This is the latest recevied weather packets stored in our database for station/object NR0A-4. If no packets are shown the sender has not sent any weather packets the latest 10 day(s).
| Time | Temp. | Humidity | Pressure | Rain* | Wind** | Luminosity | Snow |
|---|---|---|---|---|---|---|---|
| 1778011805 | 12.78° C | 38% | 1013.2 hPa | 0 mm | - | 689 W/m² | - |
| 1778011504 | 12.78° C | 36% | 1013.2 hPa | 0 mm | - | 408 W/m² | - |
| 1778011204 | 12.78° C | 37% | 1013.3 hPa | 0 mm | - | 461 W/m² | - |
| 1778010904 | 12.78° C | 35% | 1013.3 hPa | 0 mm | - | 599 W/m² | - |
| 1778010604 | 12.78° C | 34% | 1013.4 hPa | 0 mm | - | 682 W/m² | - |
| 1778010304 | 12.78° C | 38% | 1013.3 hPa | 0 mm | - | 543 W/m² | - |
| 1778010004 | 13.33° C | 36% | 1013.3 hPa | 0 mm | - | 499 W/m² | - |
| 1778009704 | 13.33° C | 35% | 1013.4 hPa | 0 mm | - | 487 W/m² | - |
| 1778009405 | 13.33° C | 34% | 1013.4 hPa | 0 mm | - | 640 W/m² | - |
| 1778009105 | 13.33° C | 36% | 1013.4 hPa | 0 mm | - | 875 W/m² | - |
| 1778008804 | 12.78° C | 40% | 1013.3 hPa | 0 mm | - | 601 W/m² | - |
| 1778008504 | 12.78° C | 36% | 1013.4 hPa | 0 mm | - | 601 W/m² | - |
| 1778008205 | 13.33° C | 34% | 1013.4 hPa | 0 mm | - | 334 W/m² | - |
| 1778007904 | 13.33° C | 38% | 1013.3 hPa | 0 mm | - | 867 W/m² | - |
| 1778007604 | 13.33° C | 36% | 1013.3 hPa | 0 mm | - | 571 W/m² | - |
| 1778007304 | 13.33° C | 39% | 1013.3 hPa | 0 mm | - | 561 W/m² | - |
| 1778007004 | 13.33° C | 36% | 1013.5 hPa | 0 mm | - | 967 W/m² | - |
| 1778006704 | 13.33° C | 39% | 1013.5 hPa | 0 mm | - | 923 W/m² | - |
| 1778006405 | 12.78° C | 38% | 1013.5 hPa | 0 mm | - | 918 W/m² | - |
| 1778006105 | 12.78° C | 38% | 1013.7 hPa | 0 mm | - | 939 W/m² | - |
| 1778005804 | 12.22° C | 41% | 1013.7 hPa | 0 mm | - | 729 W/m² | - |
| 1778005504 | 12.22° C | 39% | 1013.8 hPa | 0 mm | - | 940 W/m² | - |
| 1778005205 | 12.22° C | 38% | 1013.9 hPa | 0 mm | - | 271 W/m² | - |
| 1778004904 | 12.22° C | 40% | 1013.9 hPa | 0 mm | - | 788 W/m² | - |
| 1778004604 | 12.22° C | 40% | 1014.1 hPa | 0 mm | - | 951 W/m² | - |
* Rain latest hour (hover to see other rain measurements)
** Current wind speed in m/s (hover to see current wind gust speed)